PERSEUS-M2

Last updated on Thu Nov 21 2024 00:03:39 GMT+0000 (Coordinated Universal Time)

1 40037U 14033AD 24325.57636096 .00004475 00000+0 44530-3 0 9991 2 40037 97.9378 257.1308 0014167 44.9091 315.3270 14.92093186565135
UTC large
Height (km)
Speed (km/s)
/
Latitude / Longitude
Inclination (degrees)
Orbital Period (minutes)
Azimuth
Elevation
Range (km)
Doppler Factor

Next 0 passes for location: London (51.5072 / 0.1276)

Sorry there are no passes over London.